This is the latest recevied weather packets stored in our database for station/object KE6AFE. If no packets are shown the sender has not sent any weather packets the latest 10 day(s).
| Time | Temp. | Humidity | Pressure | Rain* | Wind** | Luminosity | Snow |
|---|---|---|---|---|---|---|---|
| 1778014560 | 16.67° C | 65% | 1016.7 hPa | 0 mm | - | - | - |
| 1778013950 | 16.67° C | 65% | 1016.7 hPa | 0 mm | - | - | - |
| 1778013340 | 16.67° C | 65% | 1016.8 hPa | 0 mm | - | - | - |
| 1778012730 | 17.22° C | 64% | 1016.8 hPa | 0 mm | - | - | - |
| 1778012120 | 17.22° C | 64% | 1016.8 hPa | 0 mm | - | - | - |
| 1778011510 | 17.22° C | 63% | 1016.9 hPa | 0 mm | - | - | - |
| 1778010900 | 17.22° C | 64% | 1016.9 hPa | 0 mm | - | - | - |
| 1778010290 | 16.67° C | 64% | 1016.9 hPa | 0 mm | - | - | - |
| 1778009680 | 16.67° C | 65% | 1017 hPa | 0 mm | - | - | - |
| 1778009070 | 16.67° C | 64% | 1017 hPa | 0 mm | - | - | - |
| 1778008460 | 16.67° C | 64% | 1016.9 hPa | 0 mm | - | - | - |
| 1778007850 | 17.22° C | 64% | 1016.9 hPa | 0 mm | - | - | - |
| 1778007241 | 17.22° C | 64% | 1016.8 hPa | 0 mm | - | - | - |
| 1778006630 | 17.22° C | 64% | 1016.9 hPa | 0 mm | - | - | - |
| 1778006020 | 17.22° C | 63% | 1016.9 hPa | 0 mm | - | - | - |
| 1778005410 | 17.22° C | 62% | 1016.8 hPa | 0 mm | - | - | - |
| 1778004800 | 17.22° C | 62% | 1016.7 hPa | 0 mm | - | - | - |
| 1778004190 | 17.22° C | 62% | 1016.7 hPa | 0 mm | - | - | - |
| 1778003580 | 16.67° C | 61% | 1016.5 hPa | 0 mm | - | - | - |
| 1778002970 | 16.67° C | 61% | 1016.4 hPa | 0 mm | - | - | - |
| 1778002360 | 16.11° C | 62% | 1016.4 hPa | 0 mm | - | - | - |
| 1778001750 | 16.11° C | 61% | 1016.4 hPa | 0 mm | - | - | - |
| 1778001140 | 16.11° C | 62% | 1016.5 hPa | 0 mm | - | - | - |
| 1778000530 | 15.56° C | 62% | 1016.4 hPa | 0 mm | - | - | - |
| 1777999920 | 15° C | 63% | 1016.2 hPa | 0 mm | - | - | - |
* Rain latest hour (hover to see other rain measurements)
** Current wind speed in m/s (hover to see current wind gust speed)